When you browse on this site, cookies collect data to enhance your experience and personalize the content and advertising you see.
Visit our Privacy Policy to learn more. By continuing to use the site, you agree to this use of cookies and data.
  • In Hungary
  • List of Countries
  • For 7 days
  • Water Temperature
  • Satellite Maps
  • Weather Map
  • News
  • Weather Widgets
  • user-avatar
    Login

    Hourly Weather Lysovka

    Today, 17 November, Saturday

    Time Temperature Precipitation Wind Pressure Humidity
    00:00 -4°C° 0 mm 2 mps 769 mmHg 25%
    01:00 -4°C° 0 mm 2 mps 769 mmHg 25%
    02:00 -2°C° 0 mm 1 mps 769 mmHg 25%
    03:00 -2°C° 0 mm 1 mps 769 mmHg 23%
    04:00 -2°C° 0 mm 1 mps 768 mmHg 23%
    05:00 -2°C° 0 mm 1 mps 768 mmHg 23%
    06:00 -3°C° 0 mm 1 mps 768 mmHg 23%
    07:00 -2°C° 0 mm 1 mps 767 mmHg 23%
    08:00 -2°C° 0 mm 1 mps 767 mmHg 22%
    09:00 -2°C° 0 mm 1 mps 767 mmHg 21%
    10:00 -1°C° 0 mm 1 mps 767 mmHg 20%
    11:00 0°C° 0 mm 1 mps 766 mmHg 19%
    12:00 +1°C° 0 mm 1 mps 766 mmHg 17%
    13:00 +1°C° 0 mm 1 mps 765 mmHg 19%
    14:00 -1°C° 0 mm 2 mps 765 mmHg 20%
    15:00 -1°C° 0 mm 2 mps 764 mmHg 21%
    16:00 -1°C° 0 mm 2 mps 763 mmHg 22%
    17:00 -2°C° 0 mm 2 mps 763 mmHg 24%
    18:00 -3°C° 0 mm 2 mps 762 mmHg 25%
    19:00 -4°C° 0 mm 3 mps 762 mmHg 25%
    20:00 -4°C° 0 mm 3 mps 761 mmHg 25%
    21:00 -4°C° 0 mm 3 mps 760 mmHg 25%
    22:00 -4°C° 0 mm 3 mps 760 mmHg 26%
    23:00 -4°C° 0 mm 3 mps 759 mmHg 26%

    Tomorrow, 18 November, Sunday

    Time Temperature Precipitation Wind Pressure Humidity
    00:00 -4°C° 0 mm 4 mps 758 mmHg 27%
    01:00 -4°C° 0 mm 4 mps 758 mmHg 27%
    02:00 -4°C° 0 mm 4 mps 757 mmHg 27%
    03:00 -4°C° 0 mm 4 mps 757 mmHg 27%
    04:00 -4°C° 0 mm 4 mps 756 mmHg 28%
    05:00 -4°C° 0 mm 4 mps 756 mmHg 28%
    06:00 -4°C° 0 mm 4 mps 755 mmHg 28%
    07:00 -4°C° 0 mm 3 mps 755 mmHg 30%
    08:00 -4°C° 0 mm 3 mps 755 mmHg 31%
    09:00 -4°C° 0 mm 3 mps 755 mmHg 33%
    10:00 -2°C° 0 mm 3 mps 755 mmHg 33%
    11:00 -1°C° 0 mm 3 mps 755 mmHg 34%
    12:00 0°C° 0 mm 3 mps 755 mmHg 34%
    13:00 0°C° 0 mm 3 mps 755 mmHg 35%
    14:00 0°C° 0 mm 3 mps 755 mmHg 36%
    15:00 +1°C° 0 mm 2 mps 755 mmHg 37%
    16:00 -1°C° 0 mm 2 mps 755 mmHg 38%
    17:00 -2°C° 0 mm 2 mps 755 mmHg 40%
    18:00 -2°C° 0 mm 2 mps 755 mmHg 41%
    19:00 -2°C° 0 mm 2 mps 755 mmHg 41%
    20:00 -3°C° 0 mm 2 mps 755 mmHg 42%
    21:00 -3°C° 0 mm 2 mps 755 mmHg 42%
    22:00 -3°C° 0 mm 2 mps 756 mmHg 43%
    23:00 -3°C° 0 mm 2 mps 756 mmHg 44%

    Day after tomorrow, 19 November, Monday

    Time Temperature Precipitation Wind Pressure Humidity
    00:00 -1°C° 0 mm 1 mps 756 mmHg 45%
    01:00 -1°C° 0 mm 1 mps 756 mmHg 45%
    02:00 -1°C° 0 mm 1 mps 756 mmHg 46%
    03:00 -2°C° 0 mm 1 mps 757 mmHg 46%
    04:00 -2°C° 0 mm 1 mps 757 mmHg 46%
    05:00 -2°C° 0 mm 1 mps 757 mmHg 47%
    06:00 -2°C° 0 mm 1 mps 757 mmHg 47%
    07:00 -2°C° 0 mm 1 mps 758 mmHg 47%
    08:00 -2°C° 0 mm 1 mps 758 mmHg 46%
    09:00 -2°C° 0 mm 1 mps 758 mmHg 45%
    10:00 -1°C° 0 mm 1 mps 759 mmHg 43%
    11:00 0°C° 0 mm 1 mps 759 mmHg 40%
    12:00 +1°C° 0 mm 1 mps 759 mmHg 38%
    13:00 +1°C° 0 mm 1 mps 759 mmHg 38%
    14:00 +1°C° 0 mm 1 mps 760 mmHg 39%
    15:00 +1°C° 0 mm 1 mps 760 mmHg 40%
    16:00 0°C° 0 mm 1 mps 760 mmHg 41%
    17:00 0°C° 0 mm 1 mps 760 mmHg 43%
    18:00 -3°C° 0 mm 2 mps 760 mmHg 45%
    19:00 -3°C° 0 mm 2 mps 760 mmHg 45%
    20:00 -3°C° 0 mm 2 mps 760 mmHg 45%
    21:00 -3°C° 0 mm 2 mps 760 mmHg 45%
    22:00 -3°C° 0 mm 2 mps 760 mmHg 45%
    23:00 -3°C° 0 mm 2 mps 760 mmHg 46%

    20 November, Tuesday

    Time Temperature Precipitation Wind Pressure Humidity
    00:00 -3°C° 0 mm 2 mps 760 mmHg 46%
    01:00 -3°C° 0 mm 2 mps 760 mmHg 45%
    02:00 -3°C° 0 mm 2 mps 760 mmHg 45%
    03:00 -3°C° 0 mm 2 mps 760 mmHg 45%
    04:00 -3°C° 0 mm 2 mps 760 mmHg 46%
    05:00 -3°C° 0 mm 2 mps 759 mmHg 47%
    06:00 -3°C° 0 mm 2 mps 759 mmHg 48%
    07:00 -3°C° 0.1 mm 2 mps 759 mmHg 52%
    08:00 -3°C° 0.1 mm 2 mps 759 mmHg 56%
    09:00 -4°C° 0.1 mm 3 mps 759 mmHg 60%
    10:00 -2°C° 0 mm 3 mps 758 mmHg 57%
    11:00 -2°C° 0 mm 3 mps 758 mmHg 54%
    12:00 -1°C° 0 mm 3 mps 758 mmHg 52%
    13:00 -1°C° 0.1 mm 3 mps 757 mmHg 54%
    14:00 -2°C° 0.1 mm 3 mps 757 mmHg 56%
    15:00 -2°C° 0.1 mm 3 mps 756 mmHg 59%
    16:00 -2°C° 0 mm 3 mps 756 mmHg 59%
    17:00 -2°C° 0 mm 3 mps 755 mmHg 60%
    18:00 -2°C° 0 mm 2 mps 755 mmHg 61%
    19:00 -2°C° 0 mm 2 mps 755 mmHg 61%
    20:00 -2°C° 0 mm 2 mps 755 mmHg 61%
    21:00 -2°C° 0 mm 2 mps 754 mmHg 62%
    22:00 -3°C° 0.1 mm 2 mps 754 mmHg 66%
    23:00 -3°C° 0.1 mm 2 mps 754 mmHg 70%

    21 November, Wednesday

    Time Temperature Precipitation Wind Pressure Humidity
    00:00 -3°C° 0.1 mm 2 mps 753 mmHg 74%
    01:00 -3°C° 0.1 mm 2 mps 753 mmHg 76%
    02:00 -4°C° 0.1 mm 3 mps 753 mmHg 78%
    03:00 -4°C° 0.1 mm 3 mps 752 mmHg 80%
    04:00 -4°C° 0.1 mm 3 mps 752 mmHg 81%
    05:00 -4°C° 0.1 mm 3 mps 752 mmHg 82%
    06:00 -4°C° 0.1 mm 3 mps 752 mmHg 83%
    07:00 -4°C° 0.1 mm 4 mps 752 mmHg 83%
    08:00 -4°C° 0.1 mm 4 mps 752 mmHg 83%
    09:00 -4°C° 0.1 mm 4 mps 752 mmHg 83%
    10:00 -4°C° 0 mm 4 mps 752 mmHg 81%
    11:00 -4°C° 0 mm 5 mps 752 mmHg 80%
    12:00 -4°C° 0 mm 5 mps 752 mmHg 78%
    13:00 -4°C° 0 mm 5 mps 752 mmHg 78%
    14:00 -4°C° 0 mm 5 mps 752 mmHg 78%
    15:00 -4°C° 0 mm 5 mps 752 mmHg 78%
    16:00 -3°C° 0 mm 4 mps 752 mmHg 79%
    17:00 -3°C° 0 mm 4 mps 752 mmHg 81%
    18:00 -4°C° 0 mm 4 mps 752 mmHg 82%
    19:00 -3°C° 0 mm 4 mps 753 mmHg 83%
    20:00 -3°C° 0 mm 4 mps 753 mmHg 84%
    21:00 -3°C° 0 mm 4 mps 753 mmHg 85%
    22:00 -4°C° 0 mm 4 mps 753 mmHg 85%
    23:00 -4°C° 0 mm 4 mps 753 mmHg 85%

    22 November, Thursday

    Time Temperature Precipitation Wind Pressure Humidity
    00:00 -4°C° 0 mm 4 mps 753 mmHg 84%
    01:00 -4°C° 0 mm 4 mps 753 mmHg 84%
    02:00 -4°C° 0 mm 4 mps 753 mmHg 84%
    03:00 -4°C° 0 mm 4 mps 753 mmHg 84%
    04:00 -4°C° 0 mm 4 mps 753 mmHg 83%
    05:00 -4°C° 0 mm 4 mps 753 mmHg 82%
    06:00 -4°C° 0 mm 4 mps 753 mmHg 81%
    07:00 -4°C° 0 mm 4 mps 753 mmHg 81%
    08:00 -5°C° 0 mm 4 mps 753 mmHg 82%
    09:00 -5°C° 0 mm 4 mps 754 mmHg 82%
    10:00 -5°C° 0 mm 4 mps 754 mmHg 78%
    11:00 -4°C° 0 mm 4 mps 754 mmHg 74%
    12:00 -5°C° 0 mm 5 mps 754 mmHg 70%
    13:00 -4°C° 0 mm 4 mps 753 mmHg 72%
    14:00 -4°C° 0 mm 4 mps 753 mmHg 73%
    15:00 -4°C° 0 mm 4 mps 753 mmHg 74%
    16:00 -4°C° 0 mm 4 mps 753 mmHg 77%
    17:00 -4°C° 0 mm 4 mps 753 mmHg 80%
    18:00 -5°C° 0 mm 4 mps 753 mmHg 83%
    19:00 -6°C° 0 mm 5 mps 753 mmHg 81%
    20:00 -5°C° 0 mm 5 mps 753 mmHg 79%
    21:00 -5°C° 0 mm 6 mps 753 mmHg 77%
    22:00 -5°C° 0 mm 5 mps 754 mmHg 79%
    23:00 -5°C° 0 mm 5 mps 754 mmHg 80%
    Show more